Location: Hilton Head Island
(32.2163°N, 80.7526°W)
Time: 03:10:03
(UTC-04:00)

Transit 2A Rocket - Pass Details

Date: 14 February 2026
Orbit: 583 x 900 km, 66.7° (Epoch: 11 March)

Event Time Altitude Azimuth Distance (km) Brightness Sun altitude
Rises 02:07:55 0° 341° (NNW) 3,329 - -61.7°
Reaches altitude 10° 02:10:35 10° 348° (NNW) 2,344 - -61.2°
Maximum altitude 02:15:38 42° 59° (ENE) 1,046 - -60.4°
Drops below altitude 10° 02:20:14 10° 130° (SE) 2,131 - -59.6°
Sets 02:22:33 0° 137° (SE) 2,994 - -59.2°
